Weather Roundup
Issued by NWS

Home | Current Version | Previous Version | Graphics & Text | Print | Product List | Glossary Off
Versions: 1 2 3 4 5 6 7 8 9 10 11 12 13 14 15 16 17 18 19 20 21 22 23 24 25 26 27 28 29 30 31 32 33 34 35 36 37 38 39 40 41 42 43 44 45 46 47 48 49 50

000
NZUS93 KARX 230059
HRRWXR

CURRENT HOURLY OBSERVATIONS ACROSS
MUCH OF THE UPPER MISSISSIPPI VALLEY
NATIONAL WEATHER SERVICE LA CROSSE WI
800 PM CDT FRI MAY 22 2015


...SOUTHEAST MINNESOTA...


CITY           SKY/WX    TMP DP  RH WIND       PRES   REMARKS
ROCHESTER      CLOUDY    66  38  35 E6        30.20S
ROCHESTER/MAYO FAIR      70  34  26 CALM      30.19S
WINONA         CLOUDY    68  43  40 CALM      30.20R
AUSTIN         CLOUDY    66  46  48 CALM      30.18S
ALBERT LEA     CLOUDY    68  37  32 CALM      30.18S
DODGE CENTER   CLOUDY    70  32  24 E6        30.19S
PRESTON        CLOUDY    65  35  32 E5        30.20S
OWATONNA       CLOUDY    70  34  26 CALM      30.18S
FARIBAULT      CLOUDY    70  37  30 CALM      30.19S
$$

...ELSEWHERE IN MINNESOTA...


CITY           SKY/WX    TMP DP  RH WIND       PRES   REMARKS
MINNEAPOLIS    MOCLDY    73  32  22 VRB5      30.18S
INTNL FALLS    PTCLDY    71  37  28 SW6       30.09F
DULUTH         CLEAR     67  36  31 S6        30.15F
RED WING       MOCLDY    66  43  42 CALM      30.18S
REDWOOD FALLS  CLOUDY    72  32  23 E7        30.14F
MANKATO        CLOUDY    70  36  28 NE5       30.17S
WORTHINGTON    CLOUDY    70  32  24 S7        30.16S
FAIRMONT       CLOUDY    70  34  26 SE7       30.16S
$$

...SOUTHWEST WISCONSIN...


CITY           SKY/WX    TMP DP  RH WIND       PRES   REMARKS
LA CROSSE      CLOUDY    71  38  29 CALM      30.19R
PRAIRIE DU CHI CLOUDY    69  44  41 CALM      30.18S
BOSCOBEL       CLOUDY    67  45  45 CALM      30.20R
LONE ROCK      NOT AVBL
PLATTEVILLE    CLOUDY    69  37  29 CALM      30.21S
FORT MC COY    CLOUDY    68  36  30 CALM      30.21R
VIROQUA        FAIR      68  31  25 CALM      30.21S
WIS DELLS      CLOUDY    67  36  32 CALM      30.21S
$$

...ELSEWHERE IN WISCONSIN...


CITY           SKY/WX    TMP DP  RH WIND       PRES   REMARKS
MILWAUKEE      MOCLDY    48  27  44 SE8       30.28S
MADISON        CLOUDY    65  41  41 CALM      30.21S
GREEN BAY      CLEAR     57  31  37 S10       30.23R
EAU CLAIRE     PTCLDY    69  32  25 CALM      30.19S
BLACK RVR FLS  FAIR      64  38  37 CALM      30.20R
MEDFORD        CLEAR     65  33  30 SW3       30.21S
WAUSAU         CLEAR     64  35  34 SW7       30.19R
WIS RAPIDS     LGT RAIN  66  32  28 NE3       30.22R
MARSHFIELD     PTCLDY    66  33  29 CALM      30.21R
RICE LAKE      CLEAR     69  33  26 S5        30.21S
$$

...NORTHEAST IOWA...


CITY           SKY/WX    TMP DP  RH WIND       PRES   REMARKS
DECORAH        CLOUDY    68  36  30 NE5       30.18F
MASON CITY     CLOUDY    70  36  28 SW3       30.19R
CHARLES CITY   CLOUDY    68  39  34 S5        30.19S
OELWEIN        CLOUDY    72  36  26 SW3       30.19S
$$

...ELSEWHERE IN IOWA...


CITY           SKY/WX    TMP DP  RH WIND       PRES   REMARKS
DES MOINES     CLOUDY    68  44  42 SW14      30.20R
IOWA CITY      CLOUDY    71  40  32 CALM      30.21R
FORT DODGE     CLOUDY    64  50  59 SE3       30.18S
$$

...NORTHERN ILLINOIS...


CITY           SKY/WX    TMP DP  RH WIND       PRES   REMARKS
CHICAGO-OHARE  CLOUDY    55  27  34 E8        30.26R
CHICAGO-MIDWAY CLOUDY    56  30  37 E12       30.27R
MOLINE         CLOUDY    68  48  48 CALM      30.19R
ROCKFORD       CLOUDY    64  37  36 E10       30.25R
PEORIA         CLOUDY    73  44  35 SW6       30.21R
$$

NOTE: "FAIR" INDICATES FEW OR NO CLOUDS BELOW 12,000 FEET WITH NO
SIGNIFICANT WEATHER AND/OR OBSTRUCTIONS TO VISIBILITY. WIND
SPEEDS ARE IN MILES-PER-HOUR.



USA.gov is the U.S. government's official web portal to all federal, state and local government web resources and services.